CW2978 Weather Reports


time (UTC)temp
C
wind
direction
speed
KPH
gust
KPH
rain 1hr
cm
rain 24hr
cm
rain mn
cm
humidity
%
barometer
mb
20210920043512 17 214 0.0 0.0 0.00 0.00 0.00 87 1012.1
20210920042955 17 214 0.0 0.0 0.00 0.00 0.00 87 1012.1
20210920042438 17 214 0.0 0.0 0.00 0.00 0.00 87 1012.1
20210920041922 17 214 0.0 0.0 0.00 0.00 0.00 87 1012.1
20210920041405 17 214 0.0 0.0 0.00 0.00 0.00 87 1012.1
20210920040848 17 214 0.0 0.0 0.00 0.00 0.00 87 1012.1
20210920040331 17 214 0.0 0.0 0.00 0.00 0.00 86 1012.1
20210920035813 17 214 0.0 0.0 0.00 0.00 0.00 86 1012.0
20210920035256 17 214 0.0 0.0 0.00 0.00 0.00 86 1012.1
20210920034739 17 214 0.0 0.0 0.00 0.00 0.00 86 1012.1
20210920034221 17 214 0.0 0.0 0.00 0.00 0.00 86 1012.1
20210920033705 17 214 0.0 0.0 0.00 0.00 0.00 86 1012.0
20210920033147 17 214 0.0 0.0 0.00 0.00 0.00 86 1012.0
20210920032631 17 214 0.0 0.0 0.00 0.00 0.00 86 1012.0
20210920032114 17 214 0.0 0.0 0.00 0.00 0.00 86 1011.9
20210920031555 17 214 0.0 0.0 0.00 0.00 0.00 85 1011.9
20210920031038 17 214 0.0 1.6 0.00 0.00 0.00 85 1011.9
20210920030521 18 214 0.0 1.6 0.00 0.00 0.00 85 1011.9
20210920030003 18 214 0.0 1.6 0.00 0.00 0.00 85 1011.8
20210920025447 18 214 0.0 3.2 0.00 0.00 0.00 85 1011.9
20210920024928 18 214 0.0 3.2 0.00 0.00 0.00 85 1011.9
20210920024413 18 214 0.0 1.6 0.00 0.00 0.00 85 1012.0
20210920023855 18 214 0.0 1.6 0.00 0.00 0.00 84 1011.9
20210920023337 18 214 0.0 1.6 0.00 0.00 0.00 84 1011.9
20210920022819 18 214 0.0 1.6 0.00 0.00 0.00 84 1011.7
20210920022305 18 213 0.0 1.6 0.00 0.00 0.00 84 1011.6
20210920021746 18 213 0.0 1.6 0.00 0.00 0.00 84 1011.5
20210920021235 18 213 0.0 1.6 0.00 0.00 0.00 84 1011.5
20210920020712 18 213 1.6 6.4 0.00 0.00 0.00 83 1011.5
20210920020156 18 213 1.6 6.4 0.00 0.00 0.00 83 1011.5
20210920015638 18 236 0.0 8.0 0.00 0.00 0.00 83 1011.5
20210920015122 18 217 0.0 8.0 0.00 0.00 0.00 83 1011.5
20210920014602 18 271 0.0 6.4 0.00 0.00 0.00 82 1011.6
20210920014045 18 214 1.6 6.4 0.00 0.00 0.00 82 1011.6
20210920013526 18 213 1.6 6.4 0.00 0.00 0.00 81 1011.6
20210920013010 18 215 1.6 6.4 0.00 0.00 0.00 82 1011.6
20210920012453 19 208 1.6 6.4 0.00 0.00 0.00 81 1011.7
20210920011934 19 205 1.6 6.4 0.00 0.00 0.00 80 1011.7
20210920011416 19 262 1.6 8.0 0.00 0.00 0.00 80 1011.6
20210920010856 19 209 1.6 8.0 0.00 0.00 0.00 79 1011.7
20210920010341 19 251 1.6 8.0 0.00 0.00 0.00 79 1011.8
20210920005823 19 257 1.6 8.0 0.00 0.00 0.00 79 1011.8
20210920005306 19 244 3.2 8.0 0.00 0.00 0.00 78 1011.8
20210920004748 20 211 1.6 8.0 0.00 0.00 0.00 78 1011.8
20210920004231 20 213 3.2 9.7 0.00 0.00 0.00 78 1011.8
20210920003715 20 214 3.2 9.7 0.00 0.00 0.00 78 1011.7
20210920003155 20 237 1.6 8.0 0.00 0.00 0.00 77 1011.7
20210920002637 20 273 1.6 8.0 0.00 0.00 0.00 77 1011.9
20210920002119 20 273 1.6 9.7 0.00 0.00 0.00 76 1011.8
20210920001602 20 218 3.2 9.7 0.00 0.00 0.00 76 1011.9
20210920001045 20 200 3.2 9.7 0.00 0.00 0.00 76 1011.9
20210920000529 20 272 3.2 9.7 0.00 0.00 0.00 75 1011.9
20210920000011 20 205 1.6 9.7 0.00 0.00 0.00 75 1011.9
20210919235454 20 166 3.2 11.3 0.00 0.00 0.00 76 1012.0
20210919234939 20 261 3.2 11.3 0.00 0.00 0.00 76 1012.0
20210919234419 20 195 3.2 11.3 0.00 0.00 0.00 75 1012.0
20210919233902 21 196 3.2 11.3 0.00 0.00 0.00 74 1012.0
20210919233343 21 266 3.2 9.7 0.00 0.00 0.00 75 1012.1
20210919232827 21 242 3.2 9.7 0.00 0.00 0.00 75 1012.1
20210919232308 21 275 4.8 12.9 0.00 0.00 0.00 74 1012.2
20210919231748 21 201 4.8 12.9 0.00 0.00 0.00 75 1012.2
20210919231228 21 232 4.8 11.3 0.00 0.00 0.00 74 1012.2
20210919230712 21 236 4.8 11.3 0.00 0.00 0.00 73 1012.2
20210919230153 21 249 4.8 11.3 0.00 0.00 0.00 72 1012.2
20210919225636 22 197 4.8 6.4 0.00 0.00 0.00 69 1012.2
20210919225115 21 262 4.8 11.3 0.00 0.00 0.00 72 1012.2
20210919224557 21 227 4.8 9.7 0.00 0.00 0.00 72 1012.3
20210919224036 22 227 3.2 11.3 0.00 0.00 0.00 70 1012.4
20210919223518 22 205 4.8 11.3 0.00 0.00 0.00 72 1012.4
20210919223000 21 251 4.8 11.3 0.00 0.00 0.00 72 1012.6
20210919222439 22 182 3.2 11.3 0.00 0.00 0.00 70 1012.6
20210919221923 22 198 3.2 9.7 0.00 0.00 0.00 73 1012.7
20210919221404 21 155 4.8 11.3 0.00 0.00 0.00 72 1012.7
20210919220847 21 217 3.2 11.3 0.00 0.00 0.00 71 1012.6
20210919220329 22 222 3.2 6.4 0.00 0.00 0.00 72 1012.7
20210919215806 22 231 3.2 9.7 0.00 0.00 0.00 73 1012.8
20210919215253 21 255 3.2 11.3 0.00 0.00 0.00 71 1012.8
20210919214730 22 286 4.8 11.3 0.00 0.00 0.00 73 1013.0
20210919214212 22 235 4.8 11.3 0.00 0.00 0.00 71 1013.0
20210919213653 22 261 4.8 11.3 0.00 0.00 0.00 71 1013.0
20210919213137 21 178 6.4 12.9 0.00 0.00 0.00 73 1013.1
20210919212617 21 196 4.8 12.9 0.00 0.00 0.00 70 1013.1
20210919212100 22 182 4.8 11.3 0.00 0.00 0.00 72 1013.2
20210919211541 21 225 4.8 11.3 0.00 0.00 0.00 74 1013.2
20210919211023 21 213 4.8 9.7 0.00 0.00 0.00 73 1013.3
20210919210502 21 214 4.8 9.7 0.00 0.00 0.00 72 1013.4
20210919205942 21 213 4.8 12.9 0.00 0.00 0.00 72 1013.5
20210919205422 22 194 4.8 12.9 0.00 0.00 0.00 74 1013.6
20210919204903 21 188 6.4 12.9 0.00 0.00 0.00 74 1013.7
20210919204344 21 207 4.8 12.9 0.00 0.00 0.00 74 1013.7
20210919203826 21 211 6.4 9.7 0.00 0.00 0.00 73 1013.8
20210919203306 21 217 4.8 12.9 0.00 0.00 0.00 71 1014.0
20210919202747 22 215 3.2 11.3 0.00 0.00 0.00 70 1014.1
20210919202229 22 171 3.2 11.3 0.00 0.00 0.00 70 1014.2
20210919201710 22 245 3.2 12.9 0.00 0.00 0.00 71 1014.3
20210919201152 21 284 4.8 12.9 0.00 0.00 0.00 72 1014.3
20210919200636 21 204 4.8 14.5 0.00 0.00 0.00 71 1014.3
20210919200117 21 194 4.8 14.5 0.00 0.00 0.00 72 1014.4
20210919195603 21 217 4.8 12.9 0.00 0.00 0.00 72 1014.5
20210919195042 21 203 6.4 12.9 0.00 0.00 0.00 74 1014.5
20210919194525 21 211 6.4 12.9 0.00 0.00 0.00 73 1014.6
20210919194009 21 240 6.4 12.9 0.00 0.00 0.00 73 1014.6
20210919193451 21 300 6.4 12.9 0.00 0.00 0.00 73 1014.6
20210919192934 21 215 4.8 12.9 0.00 0.00 0.00 71 1014.6
20210919192418 21 188 3.2 12.9 0.00 0.00 0.00 70 1014.6
20210919191858 21 207 4.8 11.3 0.00 0.00 0.00 72 1014.7
20210919191339 21 190 4.8 11.3 0.00 0.00 0.00 72 1014.7
20210919190819 21 176 4.8 11.3 0.00 0.00 0.00 73 1014.6
20210919190300 21 180 3.2 11.3 0.00 0.00 0.00 72 1014.6
20210919185740 21 187 3.2 11.3 0.00 0.00 0.00 73 1014.7
20210919185222 21 163 4.8 12.9 0.00 0.00 0.00 73 1014.8
20210919184704 21 206 6.4 12.9 0.00 0.00 0.00 74 1014.9
20210919184149 20 167 4.8 11.3 0.00 0.00 0.00 73 1014.9
20210919183631 21 173 3.2 11.3 0.00 0.00 0.00 73 1015.0
20210919183112 20 205 0.0 8.0 0.00 0.00 0.00 72 1015.0
20210919182552 21 228 0.0 1.6 0.00 0.00 0.00 73 1015.1
20210919182038 21 234 0.0 1.6 0.00 0.00 0.00 75 1015.1
20210919181510 20 203 0.0 0.0 0.00 0.00 0.00 76 1015.1
20210919180952 20 202 0.0 0.0 0.00 0.00 0.00 77 1015.2
20210919180436 20 178 0.0 0.0 0.00 0.00 0.00 76 1015.3
20210919175915 20 225 0.0 0.0 0.00 0.00 0.00 76 1015.4
20210919175357 20 211 0.0 0.0 0.00 0.00 0.00 77 1015.4
20210919174835 19 217 0.0 0.0 0.00 0.00 0.00 80 1015.4
20210919174316 19 209 0.0 0.0 0.00 0.00 0.00 80 1015.5
20210919173756 19 199 0.0 0.0 0.00 0.00 0.00 80 1015.4
20210919173236 19 198 0.0 0.0 0.00 0.00 0.00 79 1015.4
20210919172715 19 196 0.0 0.0 0.00 0.00 0.00 81 1015.5
20210919172157 18 196 0.0 0.0 0.00 0.00 0.00 80 1015.5
20210919171638 18 123 0.0 0.0 0.00 0.00 0.00 81 1015.6
20210919171121 18 106 0.0 0.0 0.00 0.00 0.00 82 1015.7
20210919170557 18 106 0.0 0.0 0.00 0.00 0.00 82 1015.8
20210919170038 18 106 0.0 0.0 0.00 0.00 0.00 83 1015.8
20210919165518 18 355 0.0 0.0 0.00 0.00 0.00 83 1015.8
20210919165001 18 355 0.0 0.0 0.00 0.00 0.00 83 1015.8
20210919164440 17 355 0.0 0.0 0.00 0.00 0.00 83 1015.8
20210919163919 17 355 0.0 0.0 0.00 0.00 0.00 84 1015.8
20210919163359 17 355 0.0 0.0 0.00 0.00 0.00 83 1015.8
20210919162841 17 0 0.0 0.0 0.00 0.00 0.00 83 1015.7
20210919162321 17 0 0.0 0.0 0.00 0.00 0.00 83 1015.7
20210919161806 17 341 0.0 0.0 0.00 0.00 0.00 83 1015.8
20210919161245 17 342 0.0 0.0 0.00 0.00 0.00 83 1015.7
20210919160727 17 355 0.0 0.0 0.00 0.00 0.00 83 1015.6
20210919160206 17 355 0.0 0.0 0.00 0.00 0.00 83 1015.5
20210919155645 16 355 0.0 0.0 0.00 0.00 0.00 83 1015.5
20210919155125 16 355 0.0 0.0 0.00 0.00 0.00 83 1015.5
20210919154607 16 355 0.0 0.0 0.00 0.00 0.00 84 1015.4
20210919154051 16 355 0.0 0.0 0.00 0.00 0.00 85 1015.3
20210919153532 16 355 0.0 0.0 0.00 0.00 0.00 86 1015.2
20210919153007 16 355 0.0 0.0 0.00 0.00 0.00 87 1015.3
20210919152447 15 355 0.0 0.0 0.00 0.00 0.00 86 1015.2
20210919151926 15 355 0.0 0.0 0.00 0.00 0.00 87 1015.2
20210919151406 15 355 0.0 0.0 0.00 0.00 0.00 88 1015.2
20210919150850 15 355 0.0 0.0 0.00 0.00 0.00 89 1015.1
20210919150330 15 355 0.0 0.0 0.00 0.00 0.00 89 1015.0
20210919145814 15 355 0.0 0.0 0.00 0.00 0.00 88 1015.0
20210919145251 16 355 0.0 0.0 0.00 0.00 0.00 89 1015.0
20210919144731 16 355 0.0 0.0 0.00 0.00 0.00 91 1015.0
20210919144210 16 355 0.0 0.0 0.00 0.00 0.00 91 1015.0
20210919143655 15 355 0.0 0.0 0.00 0.00 0.00 91 1015.0
20210919143128 15 355 0.0 4.8 0.00 0.00 0.00 92 1015.1
20210919142610 15 355 1.6 4.8 0.00 0.00 0.00 92 1015.1
20210919142049 15 355 1.6 6.4 0.00 0.00 0.00 92 1015.0
20210919141530 14 0 0.0 6.4 0.00 0.00 0.00 92 1015.0
20210919141010 13 355 0.0 3.2 0.00 0.00 0.00 92 1015.0
20210919140449 13 355 0.0 3.2 0.00 0.00 0.00 91 1015.0
20210919135931 13 355 0.0 4.8 0.00 0.00 0.00 91 1015.0
20210919135409 14 355 0.0 4.8 0.00 0.00 0.00 91 1014.9
20210919134850 15 355 1.6 4.8 0.00 0.00 0.00 92 1014.8
20210919134330 14 355 1.6 4.8 0.00 0.00 0.00 92 1014.8
20210919133811 14 355 3.2 4.8 0.00 0.00 0.00 92 1014.8
20210919133252 14 355 3.2 4.8 0.00 0.00 0.00 92 1014.8
20210919132735 14 0 3.2 4.8 0.00 0.00 0.00 92 1014.8
20210919132216 13 0 3.2 6.4 0.00 0.00 0.00 92 1014.8
20210919131658 13 355 1.6 6.4 0.00 0.00 0.00 92 1014.7
20210919131142 13 334 0.0 0.0 0.00 0.00 0.00 92 1014.7
20210919130624 12 334 0.0 0.0 0.00 0.00 0.00 91 1014.8
20210919130104 13 334 0.0 0.0 0.00 0.00 0.00 91 1014.7
20210919125551 13 334 0.0 1.6 0.00 0.00 0.00 91 1014.6
20210919125029 13 334 1.6 6.4 0.00 0.00 0.00 91 1014.6
20210919124512 13 334 0.0 6.4 0.00 0.00 0.00 92 1014.6
20210919123953 13 326 0.0 0.0 0.00 0.00 0.00 92 1014.5
20210919123435 13 324 0.0 0.0 0.00 0.00 0.00 92 1014.5
20210919122917 12 324 0.0 0.0 0.00 0.00 0.00 91 1014.4
20210919122358 12 324 0.0 0.0 0.00 0.00 0.00 91 1014.4
20210919121837 12 324 0.0 0.0 0.00 0.00 0.00 91 1014.4
20210919121318 12 325 0.0 0.0 0.00 0.00 0.00 91 1014.3
20210919120801 13 325 0.0 0.0 0.00 0.00 0.00 91 1014.2
20210919120243 13 325 0.0 0.0 0.00 0.00 0.00 91 1014.1
20210919115730 13 325 0.0 0.0 0.00 0.00 0.00 91 1014.1
20210919115210 13 325 0.0 0.0 0.00 0.00 0.00 91 1014.1
20210919114655 12 325 0.0 0.0 0.00 0.00 0.00 91 1014.1
20210919114131 12 325 0.0 0.0 0.00 0.00 0.00 90 1014.0
20210919113614 13 325 0.0 0.0 0.00 0.00 0.00 91 1014.1
20210919113057 13 325 0.0 0.0 0.00 0.00 0.00 91 1014.0
20210919112536 13 325 0.0 0.0 0.00 0.00 0.00 91 1014.1
20210919112018 12 325 0.0 0.0 0.00 0.00 0.00 90 1014.1
20210919111501 13 325 0.0 0.0 0.00 0.00 0.00 90 1014.2
20210919110943 13 325 0.0 0.0 0.00 0.00 0.00 91 1014.2
20210919110427 13 325 0.0 0.0 0.00 0.00 0.00 91 1014.1
20210919105907 13 325 0.0 0.0 0.00 0.00 0.00 90 1014.2
20210919105348 13 325 0.0 0.0 0.00 0.00 0.00 90 1014.2
20210919104828 13 325 0.0 0.0 0.00 0.00 0.00 90 1014.2
20210919104310 13 325 0.0 0.0 0.00 0.00 0.00 90 1014.2
20210919103753 13 325 0.0 0.0 0.00 0.00 0.00 90 1014.3
20210919103232 13 325 0.0 0.0 0.00 0.00 0.00 90 1014.4
20210919102716 13 325 0.0 0.0 0.00 0.00 0.00 90 1014.4
20210919102157 13 325 0.0 0.0 0.00 0.00 0.00 90 1014.4
20210919101640 13 325 0.0 0.0 0.00 0.00 0.00 90 1014.5
20210919101121 13 325 0.0 0.0 0.00 0.00 0.00 91 1014.5
20210919100601 13 325 0.0 0.0 0.00 0.00 0.00 90 1014.5
20210919100046 13 325 0.0 0.0 0.00 0.00 0.00 90 1014.5
20210919095525 13 325 0.0 0.0 0.00 0.00 0.00 90 1014.6
20210919095006 13 325 0.0 0.0 0.00 0.00 0.00 90 1014.7
20210919094445 13 325 0.0 0.0 0.00 0.00 0.00 90 1014.7
20210919093926 13 329 0.0 0.0 0.00 0.00 0.00 90 1014.7
20210919093407 13 329 0.0 0.0 0.00 0.00 0.00 90 1014.7
20210919092849 13 329 0.0 0.0 0.00 0.00 0.00 89 1014.7
20210919092330 14 323 0.0 0.0 0.00 0.00 0.00 90 1014.8
20210919091810 14 323 0.0 0.0 0.00 0.00 0.00 89 1014.7
20210919091249 14 323 0.0 0.0 0.00 0.00 0.00 89 1014.9
20210919090730 14 323 0.0 0.0 0.00 0.00 0.00 90 1014.9
20210919090213 14 323 0.0 0.0 0.00 0.00 0.00 90 1014.9
20210919085655 14 323 0.0 0.0 0.00 0.00 0.00 89 1015.0
20210919085138 15 323 0.0 0.0 0.00 0.00 0.00 89 1015.1
20210919084620 15 323 0.0 0.0 0.00 0.00 0.00 89 1015.0
20210919084101 15 323 0.0 0.0 0.00 0.00 0.00 89 1015.0
20210919083542 15 323 0.0 0.0 0.00 0.00 0.00 89 1015.0
20210919083024 15 323 0.0 0.0 0.00 0.00 0.00 89 1015.1
20210919082507 14 323 0.0 0.0 0.00 0.00 0.00 89 1015.0
20210919081951 15 323 0.0 0.0 0.00 0.00 0.00 89 1015.0
20210919081433 15 323 0.0 0.0 0.00 0.00 0.00 89 1015.1
20210919080915 15 323 0.0 0.0 0.00 0.00 0.00 89 1015.2
20210919080355 15 323 0.0 0.0 0.00 0.00 0.00 89 1015.2
20210919075838 15 323 0.0 0.0 0.00 0.00 0.00 89 1015.2
20210919075320 15 323 0.0 0.0 0.00 0.00 0.00 88 1015.3
20210919074803 15 323 0.0 0.0 0.00 0.00 0.00 88 1015.2
20210919074243 15 323 0.0 0.0 0.00 0.00 0.00 88 1015.4
20210919073723 15 323 0.0 0.0 0.00 0.00 0.00 88 1015.4
20210919073204 15 323 0.0 0.0 0.00 0.00 0.00 88 1015.4
20210919072648 15 323 0.0 0.0 0.00 0.00 0.00 88 1015.4
20210919072128 15 323 0.0 0.0 0.00 0.00 0.00 88 1015.4
20210919071611 15 323 0.0 0.0 0.00 0.00 0.00 88 1015.4
20210919071053 15 323 0.0 0.0 0.00 0.00 0.00 88 1015.4
20210919070535 15 323 0.0 0.0 0.00 0.00 0.00 88 1015.4
20210919070016 15 323 0.0 0.0 0.00 0.00 0.00 88 1015.4
20210919065459 15 323 0.0 0.0 0.00 0.00 0.00 88 1015.3
20210919064942 15 323 0.0 0.0 0.00 0.00 0.00 88 1015.3
20210919064427 15 323 0.0 0.0 0.00 0.00 0.00 88 1015.3
20210919063910 15 323 0.0 0.0 0.00 0.00 0.00 88 1015.3
20210919063349 15 323 0.0 0.0 0.00 0.00 0.00 87 1015.3
20210919062831 15 323 0.0 0.0 0.00 0.00 0.00 87 1015.3
20210919062314 15 323 0.0 0.0 0.00 0.00 0.00 87 1015.3
20210919061754 15 323 0.0 0.0 0.00 0.00 0.00 87 1015.4
20210919061234 16 323 0.0 0.0 0.00 0.00 0.00 87 1015.4
20210919060717 16 323 0.0 0.0 0.00 0.00 0.00 87 1015.5
20210919060200 16 323 0.0 0.0 0.00 0.00 0.00 87 1015.4
20210919055641 16 323 0.0 0.0 0.00 0.00 0.00 87 1015.4
20210919055122 16 323 0.0 0.0 0.00 0.00 0.00 87 1015.5
20210919054609 16 323 0.0 0.0 0.00 0.00 0.00 87 1015.5
20210919054049 16 323 0.0 0.0 0.00 0.00 0.00 87 1015.5
20210919053532 16 323 0.0 0.0 0.00 0.00 0.00 87 1015.5
20210919053014 16 323 0.0 0.0 0.00 0.00 0.00 87 1015.6
20210919052456 16 323 0.0 0.0 0.00 0.00 0.00 86 1015.6
20210919051940 16 323 0.0 0.0 0.00 0.00 0.00 86 1015.6
20210919051422 16 323 0.0 0.0 0.00 0.00 0.00 86 1015.5
20210919050905 16 323 0.0 0.0 0.00 0.00 0.00 86 1015.5
20210919050348 16 323 0.0 0.0 0.00 0.00 0.00 86 1015.4
20210919045830 16 323 0.0 0.0 0.00 0.00 0.00 86 1015.4
20210919045314 16 323 0.0 0.0 0.00 0.00 0.00 86 1015.4
20210919044754 16 323 0.0 0.0 0.00 0.00 0.00 85 1015.4
20210919044237 16 323 0.0 3.2 0.00 0.00 0.00 85 1015.4